EW5404 Weather Reports


time (UTC)temp
C
wind
direction
speed
KPH
gust
KPH
rain 1hr
cm
rain 24hr
cm
rain mn
cm
humidity
%
barometer
mb
20260504044602 11 292 0.0 0.0 0.00 0.00 0.00 77 1017.9
20260504043055 11 292 0.0 0.0 0.00 0.00 0.00 73 1018.1
20260504041549 12 292 0.0 0.0 0.00 0.00 0.00 72 1018.3
20260504040101 12 292 0.0 0.0 0.00 0.00 0.00 70 1018.4
20260504034557 12 292 0.0 0.0 0.00 0.00 0.00 69 1018.5
20260504033114 13 292 0.0 0.0 0.00 0.00 0.00 67 1018.3
20260504031546 13 292 0.0 0.0 0.00 0.00 0.00 66 1018.4
20260504030048 13 292 0.0 0.0 0.00 0.00 0.00 66 1018.2
20260504024545 13 292 0.0 0.0 0.00 0.00 0.00 64 1018.2
20260504023058 13 292 0.0 0.0 0.00 0.00 0.00 63 1018.2
20260504021542 14 292 0.0 0.0 0.00 0.00 0.00 62 1018.0
20260504020042 15 292 0.0 0.0 0.00 0.00 0.00 60 1017.9
20260504014548 15 292 0.0 0.0 0.00 0.00 0.00 59 1017.5
20260504013046 15 292 0.0 0.0 0.00 0.00 0.00 57 1017.5
20260504011540 16 292 0.0 0.0 0.00 0.00 0.00 54 1017.4
20260504010047 16 292 0.0 0.0 0.00 0.00 0.00 53 1017.4
20260504004555 17 292 0.0 0.0 0.00 0.00 0.00 51 1017.4
20260504003039 17 292 0.0 0.0 0.00 0.00 0.00 49 1017.2
20260504001538 18 292 0.0 0.0 0.00 0.00 0.00 47 1017.0
20260504000037 18 292 0.0 1.6 0.00 0.00 0.00 46 1017.0
20260503234542 19 299 0.0 0.0 0.00 0.00 0.00 44 1017.1
20260503233037 19 279 0.0 0.0 0.00 0.00 0.00 43 1017.0
20260503231535 20 202 0.0 3.2 0.00 0.00 0.00 40 1017.0
20260503230038 20 346 0.0 4.8 0.00 0.00 0.00 42 1017.0
20260503224532 20 13 0.0 6.4 0.00 0.00 0.00 41 1016.9
20260503223031 20 336 0.0 3.2 0.00 0.00 0.00 41 1017.0
20260503221529 20 331 0.0 12.9 0.00 0.00 0.00 40 1017.1
20260503220028 21 118 0.0 9.7 0.00 0.00 0.00 38 1017.2
20260503214527 21 341 0.0 8.0 0.00 0.00 0.00 38 1017.4
20260503213024 21 325 0.0 12.9 0.00 0.00 0.00 38 1017.4
20260503211523 21 341 0.0 16.1 0.00 0.00 0.00 35 1017.5
20260503210026 22 43 0.0 9.7 0.00 0.00 0.00 37 1017.5
20260503204526 22 331 3.2 12.9 0.00 0.00 0.00 35 1017.7
20260503203022 21 344 4.8 12.9 0.00 0.00 0.00 36 1017.9
20260503201518 21 217 1.6 12.9 0.00 0.00 0.00 37 1018.2
20260503200016 21 171 0.0 9.7 0.00 0.00 0.00 37 1018.7
20260503194515 20 333 0.0 8.0 0.00 0.00 0.00 36 1018.8
20260503193022 21 327 1.6 8.0 0.00 0.00 0.00 38 1019.0
20260503191513 21 355 3.2 8.0 0.00 0.00 0.00 38 1019.2
20260503190010 20 169 1.6 12.9 0.00 0.00 0.00 39 1019.4
20260503184520 20 212 3.2 17.7 0.00 0.00 0.00 39 1019.7
20260503183010 20 271 3.2 12.9 0.00 0.00 0.00 37 1019.8
20260503181506 19 153 0.0 12.9 0.00 0.00 0.00 37 1019.9
20260503180012 19 331 0.0 8.0 0.00 0.00 0.00 37 1020.1
20260503174502 18 9 1.6 8.0 0.00 0.00 0.00 42 1020.1
20260503173002 18 307 0.0 12.9 0.00 0.00 0.00 39 1020.4
20260503171600 18 288 1.6 11.3 0.00 0.00 0.00 42 1020.6
20260503081531 6 243 0.0 0.0 0.00 0.00 0.00 86 1018.5
20260503071524 7 243 0.0 0.0 0.00 0.00 0.00 83 1018.2